Location: Peebles
(55.6412°N, 3.1714°W)
Time: 06:32:31
(UTC+01:00)

NOAA 16 DEB - Pass Details

Date: 03 July 2022
Orbit: 831 x 846 km, 98.8° (Epoch: 09 August)

Event Time Altitude Azimuth Distance (km) Brightness Sun altitude
Exits shadow 23:58:11 - 203° (SSW) 3,062 ? -9.6°
Reaches altitude 10° 00:00:03 10° 213° (SSW) 2,438 ? -9.7°
Maximum altitude 00:04:31 26° 269° (W) 1,596 ? -9.9°
Drops below altitude 10° 00:09:01 10° 325° (NW) 2,457 ? -10.1°
Sets 00:11:48 0° 338° (NNW) 3,399 ? -10.2°
